VAAU

Details ICAO VAAU (IXU)
Name AURANGABAD
Region India
Timezone Asia/Kolkata (UTC+5.5)
Plans Departing 13
Arriving 14
Stats Elevation 1,911 ft / 582 m (AMSL)
Location 19.862727° 75.398112°
Runways 1
Magnetic Variation 0.116° W
Sunrise 2018-05-25 00:21:13 UTC / 2018-05-25 05:51:13 Local
Sunset 2018-05-25 13:32:18 UTC / 2018-05-25 19:02:18 Local
Advertisement - Login to hide

Runways

ID Width Length Bearing (true) Bearing (mag) Surface Threshold Offset Overrun Length
09 148 ft / 45 m 7,703 ft / 2,348 m 87.94° 88.06° Asphalt 0 ft / 0 m 190 ft / 58 m
27 148 ft / 45 m 7,703 ft / 2,348 m 267.94° 268.06° Asphalt 0 ft / 0 m 200 ft / 61 m

Approach Navaids

Runway Type Ident Frequency Range Bearing (true) Bearing (mag) Slope Elevation
27 Localiser AUR 110.10 MHz 18 nm / 33 km 269.66° 269.78° - 1,911 ft / 582 m (AMSL)
27 Glidescope AUR 110.10 MHz 10 nm / 19 km 267.94° 268.06° 3.00° 1,911 ft / 582 m (AMSL)
27 DME AUR 110.10 MHz 18 nm / 33 km - - - 1,857 ft / 566 m (AMSL)

Map

Weather


0- 5 10 15 20 25 30 35+ Temperature / ° C

Clouds and Precipitation
Forecast for 2018-05-25 06:00 UTC. Updated 5 minutes ago

Ground ~20,000 ft ~40,000 ft Winds

METAR

VAAU 250500Z 02004KT 6000 FEW020 36/14 Q1009 NOSIG

TAF

Not found

Frequencies

Recorded 127.00 MHz ATIS
Approach 122.30 MHz APP
Tower 122.30 MHz TWR
Warning: Do not use this data for real-world aviation or navigation. No guarantee of current accuracy is given.